Blackpool, United Kingdom

7:39 AM BST on September 25, 2017 (GMT +0100)
Blackpool

Weather History for EGNH - April, 2013

Change the Weather History Date:

Saturday, April 27, 2013

  Actual Average Record
Temperature  
Mean Temperature 44 °F -  
Max Temperature 52 °F 56 °F 66 °F (1999)
Min Temperature 35 °F 46 °F 28 °F (2015)
Degree Days  
Heating Degree Days 22    
Moisture  
Dew Point 35 °F    
Average Humidity 65    
Maximum Humidity 93    
Minimum Humidity 47    
Precipitation  
Precipitation 0.00 in - - ()
Sea Level Pressure  
Sea Level Pressure 30.08 in    
Wind  
Wind Speed 11 mph ()    
Max Wind Speed 20 mph    
Max Gust Speed -    
Visibility 6.2 miles    
Events Rain    
Averages and records for this station are not official NWS values.
T = Trace of Precipitation, MM = Missing Value Source: Averaged Metar Reports

Daily Weather History Graph

Daily Weather History Graph

Search for Another Location

Airport or City:

Trip Planner

Search our weather history database for the weather conditions in past years. The results will help you decide how hot, cold, wet, or windy it might be!

Date:

Astronomy

Apr. 27, 2013 Rise Set
Actual Time 5:44 AM BST 8:35 PM BST
Civil Twilight 5:04 AM BST 9:16 PM BST
Nautical Twilight 4:12 AM BST 10:09 PM BST
Astronomical Twilight 3:05 AM BST 11:17 PM BST
Moon 11:06 PM BST (4/27) 6:37 AM BST (4/27)
Length of Visible Light 16h 11m
Length of Day
14h 51m
Waning Gibbous, 96% of the Moon is Illuminated
Apr 27
Waning Gibbous
May 2
Last Quarter
May 10
New
May 18
First Quarter
May 25
Full

Hourly Weather History & Observations

Time (BST) Temp. Windchill Dew Point Humidity Pressure Visibility Wind Dir Wind Speed Gust Speed Precip Events Conditions
12:50 AM 35 °F - 33 °F 91%  in - NE 4.6 mph - -  
3:50 AM 36 °F - 34 °F 87%  in - North 3.5 mph - -  
6:20 AM 37.4 °F 30.8 °F 35.6 °F 93% 30.04 in 6.2 mi NE 9.2 mph - N/A   Scattered Clouds
6:50 AM 39 °F - 34 °F 76%  in - North 4.6 mph - -  
6:50 AM 39.2 °F 35.0 °F 35.6 °F 87% 30.04 in 6.2 mi North 5.8 mph - N/A   Scattered Clouds
7:20 AM 41.0 °F 37.1 °F 35.6 °F 81% 30.04 in 6.2 mi North 5.8 mph - N/A   Partly Cloudy
7:50 AM 42.8 °F 36.6 °F 35.6 °F 76% 30.04 in 6.2 mi North 11.5 mph - N/A   Scattered Clouds
8:20 AM 44.6 °F 36.6 °F 35.6 °F 71% 30.06 in 6.2 mi NNE 19.6 mph - N/A   Partly Cloudy
8:50 AM 44.6 °F 38.4 °F 35.6 °F 71% 30.06 in 6.2 mi North 12.7 mph - N/A   Partly Cloudy
9:20 AM 44.6 °F 37.2 °F 33.8 °F 66% 30.06 in 6.2 mi NNE 17.3 mph - N/A   Partly Cloudy
9:50 AM 47 °F - 35 °F 52%  in - NNE 17.3 mph - -  
9:50 AM 44.6 °F 36.9 °F 33.8 °F 66% 30.09 in 6.2 mi NNE 18.4 mph - N/A   Scattered Clouds
10:20 AM 46.4 °F 40.7 °F 35.6 °F 66% 30.09 in 6.2 mi North 12.7 mph - N/A   Mostly Cloudy
10:50 AM 48.2 °F - 33.8 °F 58% 30.09 in 6.2 mi NNE 17.3 mph - N/A   Scattered Clouds
11:20 AM 48.2 °F - 33.8 °F 58% 30.09 in - North - - N/A   Scattered Clouds
11:50 AM 46.4 °F 39.2 °F 35.6 °F 66% 30.12 in 6.2 mi North 18.4 mph - N/A Rain Light Rain Showers
12:20 PM 48.2 °F - 35.6 °F 62% 30.09 in 6.2 mi NNE 17.3 mph - N/A Rain Light Rain Showers
12:50 PM 50 °F - 36 °F 48%  in - North 15.0 mph - -  
12:50 PM 50.0 °F - 35.6 °F 58% 30.09 in 6.2 mi North 17.3 mph - N/A   Scattered Clouds
1:20 PM 51.8 °F - 35.6 °F 54% 30.12 in 6.2 mi North 18.4 mph - N/A   Partly Cloudy
1:50 PM 51.8 °F - 33.8 °F 50% 30.09 in 6.2 mi North 13.8 mph - N/A   Partly Cloudy
2:20 PM 51.8 °F - 32.0 °F 47% 30.09 in 6.2 mi NNW 19.6 mph - N/A   Partly Cloudy
2:50 PM 50.0 °F - 37.4 °F 62% 30.09 in 6.2 mi NW 17.3 mph - N/A   Partly Cloudy
3:20 PM 50.0 °F - 37.4 °F 62% 30.09 in 6.2 mi NNW 18.4 mph - N/A   Partly Cloudy
3:50 PM 49 °F - 37 °F 52%  in - NW 17.3 mph - -  
3:50 PM 50.0 °F - 37.4 °F 62% 30.09 in 6.2 mi NNW 18.4 mph - N/A   Partly Cloudy
4:20 PM 50.0 °F - 35.6 °F 58% 30.09 in 6.2 mi NW 18.4 mph - N/A   Partly Cloudy
4:50 PM 50.0 °F - 35.6 °F 58% 30.09 in 6.2 mi NW 17.3 mph - N/A   Partly Cloudy
5:20 PM 48.2 °F - 37.4 °F 66% 30.09 in 6.2 mi NW 16.1 mph - N/A   Partly Cloudy
5:50 PM 48.2 °F - 35.6 °F 62% 30.09 in 6.2 mi NW 16.1 mph - N/A   Partly Cloudy
6:20 PM 48.2 °F - 35.6 °F 62% 30.09 in 6.2 mi NNW 15.0 mph - N/A   Partly Cloudy
6:50 PM 47 °F - 34 °F 49%  in - NW 15.0 mph - -  
6:50 PM 48.2 °F - 33.8 °F 58% 30.09 in 6.2 mi NW 15.0 mph - N/A   Partly Cloudy
7:20 PM 46.4 °F 41.1 °F 35.6 °F 66% 30.09 in 6.2 mi NW 11.5 mph - N/A   Partly Cloudy
7:50 PM 46.4 °F 40.7 °F 35.6 °F 66% 30.09 in - NW 12.7 mph - N/A   Clear
8:20 PM 46.4 °F 41.5 °F 35.6 °F 66% 30.09 in - NW 10.4 mph - N/A   Clear
8:50 PM 46.4 °F 41.5 °F 35.6 °F 66% 30.09 in - NW 10.4 mph - N/A   Clear
9:50 PM 44 °F - 37 °F 68%  in - WNW 10.4 mph - -